Flag for Canada Weather past 2 weeks in Qikiqtarjuaq, Nunavut Territory, Canada

Now
-13 °F

Passing clouds.


Feels Like: -23 °F
Forecast: -23 / -13 °F
Wind: 3 mph from North

Location: Broughton Island Airport

Current Time: Mar 6, 2015 at 1:02:43 AM

Latest Report: Mar 6, 2015 at 12:00 AM


Visibility: 9 mi

Pressure: 29.31 "Hg

Humidity: 63%

Dew point: -22 °F

Location of QikiqtarjuaqLocation

Historic Weather in Qikiqtarjuaq — Graph

°F

Qikiqtarjuaq temperature yesterday

Maximum temperature yesterday: -13 °F (at 2:00 AM)
Minimum temperature yesterday: -20 °F (at 5:00 PM)
Average temperature yesterday: -17 °F

Past Weeks' High & Low Weather Summary

 TemperatureHumidityPressure
High-13 °F (Mar 5, 2:00 AM)75% (Feb 21, 2:00 PM)30.41 "Hg (Feb 21, 2:00 PM)
Low-38 °F (Feb 21, 3:50 AM)53% (Feb 20, 8:00 PM)29.32 "Hg (Mar 4, 10:00 PM)
Average-25 °F67%29.78 "Hg
* Reported Feb 18 11:00 PM — Mar 5 11:00 PM, Qikiqtarjuaq, Weather by CustomWeather, © 2015

Note: Actual official high and low records may vary slightly from our data, if they occured in-between our weather recording intervals... More about our weather records

Advertising

Qikiqtarjuaq weather history for previous 24 hours

 ConditionsComfort  
Time TempWeatherWind HumidityBarometerVisibility
11:00 PM
Thu, Mar 5
-15 °FPassing clouds.No wind57%29.32 "Hg9 mi
10:00 PM-15 °FPassing clouds.9 mph63%29.33 "Hg9 mi
9:00 PM-15 °FPassing clouds.9 mph57%29.34 "Hg9 mi
8:00 PM-18 °FClear.8 mph69%29.35 "Hg9 mi
7:00 PM-20 °FClear.5 mph68%29.35 "Hg9 mi
6:00 PM-17 °FOvercast.7 mph63%29.34 "Hg15 mi
5:00 PM-20 °FOvercast.2 mph68%29.35 "Hg15 mi
4:00 PM-18 °FOvercast.No wind69%29.36 "Hg15 mi
3:00 PM-17 °FOvercast.No wind63%29.36 "Hg15 mi
2:00 PM-17 °FOvercast.2 mph69%29.36 "Hg15 mi
1:00 PM-17 °FOvercast.2 mph63%29.35 "Hg15 mi
12:00 PM-15 °FOvercast.3 mph63%29.35 "Hg15 mi
11:00 AM-17 °FOvercast.5 mph69%29.36 "Hg15 mi
10:00 AM-18 °FOvercast.6 mph69%29.37 "Hg15 mi
9:00 AM-17 °FExtremely cold.7 mph63%29.35 "Hg15 mi
8:00 AM-18 °FSunny.9 mph62%29.35 "Hg9 mi
7:00 AM-18 °FSunny.8 mph62%29.35 "Hg9 mi
6:00 AM-17 °FClear.3 mph63%29.34 "Hg9 mi
5:00 AM-15 °FClear.8 mph57%29.36 "Hg9 mi
4:00 AM-18 °FPassing clouds.2 mph62%29.35 "Hg9 mi
3:00 AM-18 °FClear.5 mph62%29.34 "Hg9 mi
2:00 AM-13 °FPassing clouds.12 mph57%29.32 "Hg9 mi
1:00 AM-15 °FPassing clouds.12 mph63%29.32 "Hg9 mi
Weather by CustomWeather, © 2015

See weather overviewHow to use our weather pages